This demonstration page uses our WeatherBlox Daily Observations layout. Learn more.

Left ArrowRight Arrow

Hourly Observations for June 14, 2018

Temp ( °F °C ) Dew Point ( °F °C ) Humidity (%) Winds ( mph kmh ) Pressure ( in mb ) Visibility ( mi km ) Precip ( " mm )
12:53 am 00:53 Clear 66 18.9 41 5 40 40 WNW 5 7 29.63 1003 10 16 0.00 0.00
1:53 am 01:53 Clear 61 16.1 43 6.1 52 52 SW 8 13 29.65 1004 10 16 0.00 0.00
2:53 am 02:53 Mostly Clear 59 15 43 6.1 56 56 SSW 7 11 29.64 1004 10 16 0.00 0.00
3:53 am 03:53 Clear 57 13.9 44 6.7 62 62 WNW 6 9 29.64 1004 10 16 0.00 0.00
4:53 am 04:53 Partly Cloudy 57 13.9 43 6.1 60 60 SW 8 13 29.64 1004 10 16 0.00 0.00
5:53 am 05:53 Mostly Sunny 57 13.9 45 7.2 64 64 Calm 29.65 1004 10 16 0.00 0.00
6:53 am 06:53 Cloudy with Light Rain 58 14.4 46 7.8 65 65 Calm 29.68 1005 10 16 0.00 0.03
7:53 am 07:53 Cloudy with Light Rain 57 13.9 53 11.7 87 87 SW 6 9 29.70 1006 10 16 0.02 0.51
8:53 am 08:53 Cloudy 58 14.4 52 11.1 81 81 WSW 3 6 29.70 1006 10 16 0.02 0.51
9:53 am 09:53 Cloudy with Light Rain 57 13.9 53 11.7 87 87 SSW 5 7 29.72 1007 10 16 0.03 0.76
10:53 am 10:53 Cloudy with Light Rain 57 13.9 54 12.2 90 90 SW 7 11 29.75 1008 10 16 0.03 0.76
11:53 am 11:53 Cloudy with Rain 60 15.6 56 13.3 86 86 SSW 13 20 29.76 1008 8 13 0.04 1.02
12:53 pm 12:53 Cloudy with Light Rain 59 15 53 11.7 81 81 WSW 12 19 29.75 1008 10 16 0.01 0.25
1:53 pm 13:53 Mostly Sunny 65 18.3 51 10.6 61 61 SW 9 15 29.74 1007 10 16 0.00 0.03
2:53 pm 14:53 Partly Cloudy 68 20 47 8.3 47 47 SW 10 17 29.72 1007 10 16 0.00 0.00
3:53 pm 15:53 Sunny 71 21.7 46 7.8 41 41 WSW 16 26 29.72 1006 10 16 0.00 0.00
4:53 pm 16:53 Sunny 73 22.8 44 6.7 35 35 WSW 18 30 29.70 1006 10 16 0.00 0.00
5:53 pm 17:53 Sunny 73 22.8 33 0.6 23 23 W 24 39 29.70 1006 10 16 0.00 0.00
6:53 pm 18:53 Mostly Sunny 71 21.7 31 -0.6 23 23 W 24 39 29.72 1007 10 16 0.00 0.00
7:53 pm 19:53 Mostly Cloudy 66 18.9 42 5.6 42 42 NW 15 24 29.77 1008 10 16 0.00 0.00
8:53 pm 20:53 Mostly Cloudy 62 16.7 40 4.4 44 44 WNW 8 13 29.79 1009 10 16 0.00 0.00
9:53 pm 21:53 Clear 53 11.7 44 6.7 72 72 SW 8 13 29.81 1010 10 16 0.00 0.00
10:53 pm 22:53 Clear 48 8.9 42 5.6 80 80 W 7 11 29.83 1010 10 16 0.00 0.00
11:53 pm 23:53 Clear 45 7.2 42 5.6 90 90 SSW 7 11 29.85 1011 10 16 0.00 0.00

Powered by AerisWeather